Grand Junction, CO

12:37 AM MDT on May 23, 2017 (GMT -0600)
Walker

Weather History for KGJT - July, 2012

Change the Weather History Date:

Friday, July 6, 2012

  Actual Average Record
Temperature  
Mean Temperature 76 °F 78 °F  
Max Temperature 91 °F 93 °F 104 °F (1989)
Min Temperature 60 °F 62 °F 46 °F (1982)
Degree Days  
Heating Degree Days 0 0  
Month to date heating degree days 0 0  
Since 1 June heating degree days 2 22  
Since 1 July heating degree days 0 0  
Cooling Degree Days 11 13  
Month to date cooling degree days 98 74  
Year to date cooling degree days 586 356  
Since 1 June cooling degree days 499 305  
Growing Degree Days 26 (Base 50)    
Moisture  
Dew Point 53 °F    
Average Humidity 52    
Maximum Humidity 84    
Minimum Humidity 19    
Precipitation  
Precipitation 0.00 in 0.02 in 0.20 in (1937)
Month to date precipitation T 0.09  
Year to date precipitation 1.42 4.38  
Snow  
Snow 0.00 in 0.00 in 0.00 in (2015)
Month to date snowfall 0.0 0.0  
Since 1 June snowfall 0.0 0.0  
Since 1 July snowfall 0.0 0.0  
Snow Depth 0.00 in    
Sea Level Pressure  
Sea Level Pressure 29.93 in    
Wind  
Wind Speed 8 mph (SE)    
Max Wind Speed 18 mph    
Max Gust Speed 22 mph    
Visibility 10 miles    
Events      
T = Trace of Precipitation, MM = Missing Value Source: NWS Daily Summary

Daily Weather History Graph

Daily Weather History Graph

Search for Another Location

Airport or City:

Trip Planner

Search our weather history database for the weather conditions in past years. The results will help you decide how hot, cold, wet, or windy it might be!

Date:

Astronomy

Jul. 06, 2012 Rise Set
Actual Time 5:54 AM MDT 8:42 PM MDT
Civil Twilight 5:22 AM MDT 9:14 PM MDT
Nautical Twilight 4:42 AM MDT 9:54 PM MDT
Astronomical Twilight 3:57 AM MDT 10:40 PM MDT
Moon 10:35 PM MDT (7/6) 9:16 AM MDT (7/6)
Length of Visible Light 15h 51m
Length of Day
14h 48m
Waning Gibbous, 89% of the Moon is Illuminated
Jul 6
Waning Gibbous
Jul 10
Last Quarter
Jul 18
New
Jul 26
First Quarter
Aug 1
Full

Hourly Weather History & Observations

Time (MDT) Temp. Heat Index Dew Point Humidity Pressure Visibility Wind Dir Wind Speed Gust Speed Precip Events Conditions
12:53 AM 68.0 °F - 59.0 °F 73% 29.91 in 10.0 mi East 16.1 mph - N/A   Clear
1:53 AM 66.0 °F - 59.0 °F 78% 29.92 in 10.0 mi ESE 11.5 mph - N/A   Clear
2:53 AM 64.0 °F - 57.9 °F 80% 29.94 in 10.0 mi ESE 9.2 mph - N/A   Clear
3:53 AM 62.1 °F - 57.9 °F 86% 29.96 in 10.0 mi Calm Calm - N/A   Clear
4:53 AM 62.1 °F - 57.0 °F 84% 29.97 in 10.0 mi Calm Calm - N/A   Mostly Cloudy
5:53 AM 64.0 °F - 57.9 °F 80% 29.98 in 10.0 mi East 5.8 mph - N/A   Scattered Clouds
6:53 AM 64.9 °F - 57.9 °F 78% 29.98 in 10.0 mi SE 10.4 mph - N/A   Scattered Clouds
7:53 AM 68.0 °F - 57.9 °F 70% 29.99 in 10.0 mi SE 6.9 mph - N/A   Scattered Clouds
8:53 AM 70.0 °F - 57.0 °F 63% 30.01 in 10.0 mi SSE 6.9 mph - N/A   Clear
9:53 AM 73.0 °F - 55.9 °F 55% 30.01 in 10.0 mi SE 6.9 mph - N/A   Scattered Clouds
10:53 AM 75.9 °F - 55.9 °F 50% 29.99 in 10.0 mi ESE 8.1 mph - N/A   Scattered Clouds
11:53 AM 80.1 °F 80.2 °F 55.9 °F 43% 29.96 in 10.0 mi Variable 4.6 mph - N/A   Scattered Clouds
12:53 PM 82.9 °F 81.8 °F 53.1 °F 36% 29.94 in 10.0 mi SW 6.9 mph - N/A   Clear
1:53 PM 86.0 °F - 48.9 °F 28% 29.91 in 10.0 mi West 8.1 mph - N/A   Clear
2:53 PM 89.1 °F - 48.0 °F 24% 29.89 in 10.0 mi West 6.9 mph - N/A   Clear
3:53 PM 89.1 °F - 46.0 °F 22% 29.87 in 10.0 mi Variable 3.5 mph - N/A   Clear
4:53 PM 90.0 °F - 43.0 °F 19% 29.86 in 10.0 mi Calm Calm - N/A   Clear
5:53 PM 90.0 °F - 44.1 °F 20% 29.84 in 10.0 mi West 9.2 mph - N/A   Clear
6:53 PM 88.0 °F - 42.1 °F 20% 29.84 in 10.0 mi WSW 3.5 mph - N/A   Clear
7:53 PM 84.9 °F - 48.9 °F 29% 29.88 in 10.0 mi SSE 10.4 mph 20.7 mph N/A   Mostly Cloudy
8:53 PM 82.9 °F - 50.0 °F 32% 29.89 in 10.0 mi SE 8.1 mph - N/A   Mostly Cloudy
9:53 PM 81.0 °F - 51.1 °F 35% 29.91 in 10.0 mi East 12.7 mph - N/A   Clear
10:53 PM 79.0 °F - 51.1 °F 38% 29.91 in 10.0 mi ENE 16.1 mph - N/A   Clear
11:53 PM 77.0 °F - 51.1 °F 40% 29.91 in 10.0 mi ENE 13.8 mph 19.6 mph N/A   Clear